"Pseudo-MPEC" for P22n4V6

Created 2026 May 14 16:35:08 UT using Find_Orb

Click here for an explanation of pseudo-MPECs

 
 Astrometry: 
     P22n4V6*0C2026 05 12.38360114 02 44.521-22 49 06.05   ~5CBK 21.71wXNEOCPF52
     P22n4V6 0C2026 05 12.39578014 02 41.876-22 49 09.65   ~5CBK 21.72wXNEOCPF52
     P22n4V6 0C2026 05 12.40793314 02 39.246-22 49 13.08   ~5CBK 21.58wXNEOCPF52
     P22n4V6 0C2026 05 12.42010414 02 36.587-22 49 16.90   ~5CBK 21.85wXNEOCPF52
     P22n4V6 0C2026 05 12.48703414 02 22.145-22 49 34.60   ~5CGZ 21.11GVNEOCPF52
     P22n4V6 0C2026 05 12.48776514 02 22.015-22 49 34.59   ~5CGZ 21.63GVNEOCPF52
     P22n4V6 |C2026 05 12.98239014 00 44.550-22 51 30.80   ~5D0Z 21.6 GVNEOCP807
     P22n4V6 |C2026 05 12.98968014 00 42.970-22 51 33.70   ~5D0Z 21.4 GVNEOCP807
     P22n4V6 |C2026 05 12.99696014 00 41.420-22 51 36.40   ~5D0Z 20.8 GVNEOCP807
     P22n4V6  C2026 05 13.28599013 59 38.765-22 53 43.37   ~5D7o 21.1 GWNEOCPH01
     P22n4V6 0C2026 05 13.28641013 59 38.800-22 53 43.70   ~5D7Z 21.4 RVNEOCP291
     P22n4V6  C2026 05 13.28905513 59 38.096-22 53 44.22   ~5D7o 21.3 GWNEOCPH01
     P22n4V6 0C2026 05 13.29316213 59 37.320-22 53 45.00   ~5D7Z 21.4 RVNEOCP291
     P22n4V6 0C2026 05 13.29990013 59 35.750-22 53 46.30   ~5D7Z 21.4 RVNEOCP291
     P22n4V6  C2026 05 13.30106613 59 35.414-22 53 47.52   ~5D7o 21.1 GWNEOCPH01
     P22n4V6  C2026 05 13.31088313 59 33.207-22 53 50.25   ~5D7o 21.3 GWNEOCPH01
     P22n4V6 |C2026 05 13.95909013 57 18.480-22 56 18.50   ~5E2K 21.7 GVNEOCP807
     P22n4V6 |C2026 05 13.96819013 57 16.450-22 56 21.80   ~5E2K 21.1 GVNEOCP807
     P22n4V6 |C2026 05 13.97729013 57 14.400-22 56 25.90   ~5E2K 21.2 GVNEOCP807
     P22n4V6 1C2026 05 14.21072413 56 22.175-22 58 16.57   ~5E5o 20.86GVNEOCPI52
     P22n4V6 1C2026 05 14.21458713 56 21.260-22 58 17.83   ~5E5o 21.74GVNEOCPI52
     P22n4V6 1C2026 05 14.21845513 56 20.375-22 58 18.73   ~5E5o 21.10GVNEOCPI52
     P22n4V6 1C2026 05 14.22232913 56 19.464-22 58 19.45   ~5E5o 21.54GVNEOCPI52
     P22n4V6 3C2026 05 14.33356913 55 55.343-22 58 46.20   ~5ECK 21.48GVNEOCPT14
     P22n4V6 3C2026 05 14.33454313 55 55.109-22 58 46.53   ~5ECK 21.55GVNEOCPT14
     P22n4V6 3C2026 05 14.36963113 55 46.808-22 58 57.03   ~5ECK 21.47GVNEOCPT14
     P22n4V6 3C2026 05 14.37061713 55 46.577-22 58 57.33   ~5ECK 21.55GVNEOCPT14
     P22n4V6 3C2026 05 14.37159613 55 46.338-22 58 57.61   ~5ECK 21.47GVNEOCPT14
     P22n4V6 3C2026 05 14.37452213 55 45.648-22 58 58.37   ~5ECK 21.50GVNEOCPT14
     P22n4V6 3C2026 05 14.37549413 55 45.418-22 58 58.72   ~5ECK 21.56GVNEOCPT14
     P22n4V6 3C2026 05 14.37659113 55 45.157-22 58 59.03   ~5ECK 21.50GVNEOCPT14
     P22n4V6 3C2026 05 14.38118213 55 44.074-22 59 00.29   ~5ECK 21.45GVNEOCPT14
     P22n4V6 3C2026 05 14.38215413 55 43.843-22 59 00.62   ~5ECK 21.49GVNEOCPT14
     P22n4V6 3C2026 05 14.38312613 55 43.610-22 59 00.87   ~5ECK 21.46GVNEOCPT14
     P22n4V6 3C2026 05 14.39188513 55 41.535-22 59 03.28   ~5ECK 21.39GVNEOCPT14
     P22n4V6 3C2026 05 14.39285513 55 41.309-22 59 03.53   ~5ECK 21.28GVNEOCPT14
     P22n4V6 3C2026 05 14.39382513 55 41.076-22 59 03.82   ~5ECK 21.37GVNEOCPT14

Station data:
(291) LPL/Spacewatch II  (N31.961669 W111.599905)  US/Arizona.  Observers J.
   V. Scotti, R. S. McMillan. 1.8-m f/2.7 reflector + CCD.
(807) Cerro Tololo Observatory, La Serena  (S30.169133 W70.805900)  Chile.
   Observer R. Holmes. 0.61-m f/6.5 astrograph + CCD.
(F52) Pan-STARRS 2, Haleakala  (N20.707382 W156.255910)  US/Hawaii.
   Observers J. Herman, T. Lowe, P. Minguez, A. Schultz, I. Smith. Measurers
   K. Chambers, T. de Boer, J. Fairlamb, H. Gao, M. Huber, C.-C. Lin, E.
   Magnier, Y. Ramanjooloo, R. Wainscoat, R. Weryk. 1.8-m Ritchey-Chrétien +
   CCD.
(H01) Magdalena Ridge Observatory, Socorro  (N33.984833 W107.189333)  US/New
   Mexico.  Observers W. H. Ryan, E. V. Ryan. Measurer W. H. Ryan. 2.4-m
   f/8.9 reflector + CCD.
(I52) Steward Observatory, Mt. Lemmon Station  (N32.442570 W110.788920)
   US/Arizona. Measurers T. Beuden, V. F. Carvajal, D. Fay, J. B. Fazekas, D.
   C. Fuls, A. R. Gibbs, A. D. Grauer, H. Gröller, J. K. Hogan, R. A.
   Kowalski, S. M. Larson, G. J. Leonard, D. Rankin, R. L. Seaman, F. C.
   Shelly, K. W. Wierzchoś. 1.0-m prime focus + CCD.
(T14) Mauna Kea-UH/Tholen NEO Follow-Up (CFHT)  (N19.825252 W155.468876)
   US/Hawaii.  Observer R. Weryk. 3.6-m Canada-France-Hawaii Telescope.

Orbital elements:  P22n4V6
   Perihelion 2026 Jul 25.146178 +/- 0.0671 TT =  3:30:29.7 (JD 2461246.646178)
Epoch 2026 May 14.0 TT = JDT 2461174.5   Earth MOID: 0.0071   Ma: 0.0451
M 328.459297317 +/- 0.18            (J2000 ecliptic)             AutoNEOCP
n   0.437177735 +/- 0.00221         Peri.  310.237387 +/- 0.06
a   1.719348940 +/- 0.00579         Node     5.589756 +/- 0.09
e   0.51262040 +/- 0.00198          Incl.    2.700970 +/- 0.010
P   2.254/823.448d         H 23.55  G  0.15   U  8.6
q 0.837975595 +/- 0.00058    Q 2.600722285 +/- 0.0122
From 37 observations 2026 May 12-14; mean residual 0".20
Residuals in arcseconds: 
260512 F52  .01+  .03-    260513 291  .74-  .52+    260514 T14  .03+  .02-    
260512 F52  .02-  .02+    260513 H01  .30+  .06+    260514 T14  .07-  .02-    
260512 F52  .07+  .16+    260513 H01  .05+  .05-    260514 T14  .03-  .06+    
260512 F52  .20-  .18-    260513 807  .09+  .30+    260514 T14  .02-  .01-    
260512 F52  .11-  .05-    260513 807  .09+  .33+    260514 T14  .04-  .01-    
260512 F52  .26+  .14+    260513 807  .06-  .46-    260514 T14  .03+  .03+    
260512 807  .06+  .06+    260514 I52  .12+  .44-    260514 T14  .02+  .03-    
260512 807  .11-  .17-    260514 I52  .08-  .51-    260514 T14  .01-  .00     
260512 807  .16+  .22-    260514 I52  .16+  .22-    260514 T14  .00   .03+    
260513 H01  .11+  .10+    260514 I52  .07+  .23+    260514 T14  .05+  .05+    
260513 291  .32-  .63-    260514 T14  .04+  .01+    260514 T14  .01+  .02+    
260513 H01  .33+  .10+    260514 T14  .02-  .01-    
260513 291  .12+  .04-    260514 T14  .01-  .01-    

Ephemerides (geocentric):
Date (UTC) HH   RA             Dec           delta  r     elong  mag " sig PA
---- --------  ------------   ------------  ------ ------ -----  --- --------
2026 05 14 17  13 54 31.770   -23 00 07.68  .22096 1.2190 158.5 21.6 .093  20
2026 05 14 18  13 54 22.456   -23 00 19.60  .22070 1.2187 158.5 21.6 .096  22
2026 05 14 19  13 54 13.126   -23 00 31.51  .22043 1.2184 158.4 21.6 .098  24
2026 05 14 20  13 54 03.778   -23 00 43.39  .22017 1.2180 158.3 21.6 .101  26
2026 05 14 21  13 53 54.412   -23 00 55.27  .21990 1.2177 158.2 21.6 .104  29
2026 05 14 22  13 53 45.029   -23 01 07.12  .21964 1.2174 158.2 21.6 .108  31
2026 05 14 23  13 53 35.628   -23 01 18.96  .21938 1.2170 158.1 21.6 .111  33
2026 05 15 00  13 53 26.210   -23 01 30.79  .21911 1.2167 158.0 21.6 .115  35
2026 05 15 01  13 53 16.774   -23 01 42.60  .21885 1.2164 158.0 21.6 .119  37
2026 05 15 02  13 53 07.320   -23 01 54.39  .21859 1.2161 157.9 21.6 .123  38
2026 05 15 03  13 52 57.849   -23 02 06.16  .21833 1.2157 157.8 21.6 .128  40
2026 05 15 04  13 52 48.360   -23 02 17.92  .21807 1.2154 157.7 21.6 .133  42
2026 05 15 05  13 52 38.853   -23 02 29.66  .21780 1.2151 157.7 21.6 .138  44
2026 05 15 06  13 52 29.328   -23 02 41.39  .21754 1.2148 157.6 21.6 .143  45
2026 05 15 07  13 52 19.785   -23 02 53.10  .21728 1.2144 157.5 21.6 .149  47
2026 05 15 08  13 52 10.225   -23 03 04.79  .21702 1.2141 157.5 21.6 .155  48
2026 05 15 09  13 52 00.647   -23 03 16.47  .21676 1.2138 157.4 21.6 .161  49
2026 05 15 10  13 51 51.050   -23 03 28.13  .21650 1.2135 157.3 21.6 .167  51
2026 05 15 11  13 51 41.436   -23 03 39.77  .21624 1.2131 157.2 21.6 .174  52
2026 05 15 12  13 51 31.804   -23 03 51.39  .21598 1.2128 157.2 21.6 .180  53
2026 05 15 13  13 51 22.154   -23 04 03.00  .21572 1.2125 157.1 21.6 .187  54
2026 05 15 14  13 51 12.486   -23 04 14.59  .21546 1.2122 157.0 21.6 .195  55
2026 05 15 15  13 51 02.799   -23 04 26.16  .21520 1.2118 156.9 21.6 .202  56
2026 05 15 16  13 50 53.095   -23 04 37.71  .21494 1.2115 156.9 21.6 .210  57
2026 05 15 17  13 50 43.373   -23 04 49.25  .21468 1.2112 156.8 21.6 .218  58
2026 05 15 18  13 50 33.632   -23 05 00.77  .21442 1.2109 156.7 21.6 .226  59
2026 05 15 19  13 50 23.873   -23 05 12.27  .21416 1.2105 156.7 21.6 .235  60
2026 05 15 20  13 50 14.096   -23 05 23.76  .21391 1.2102 156.6 21.6 .243  61
2026 05 15 21  13 50 04.300   -23 05 35.22  .21365 1.2099 156.5 21.6 .252  62
2026 05 15 22  13 49 54.487   -23 05 46.67  .21339 1.2096 156.4 21.6 .261  62
2026 05 15 23  13 49 44.655   -23 05 58.10  .21313 1.2092 156.4 21.6 .271  63
2026 05 16 00  13 49 34.804   -23 06 09.51  .21287 1.2089 156.3 21.6 .280  64
2026 05 16 01  13 49 24.935   -23 06 20.90  .21262 1.2086 156.2 21.6 .290  64
2026 05 16 02  13 49 15.048   -23 06 32.28  .21236 1.2083 156.1 21.6 .300  65
2026 05 16 03  13 49 05.143   -23 06 43.63  .21210 1.2079 156.1 21.6 .311  66
2026 05 16 04  13 48 55.218   -23 06 54.97  .21185 1.2076 156.0 21.6 .321  66
2026 05 16 05  13 48 45.276   -23 07 06.29  .21159 1.2073 155.9 21.6 .332  67
2026 05 16 06  13 48 35.315   -23 07 17.59  .21133 1.2070 155.9 21.6 .343  67
2026 05 16 07  13 48 25.335   -23 07 28.87  .21108 1.2066 155.8 21.6 .354  68
2026 05 16 08  13 48 15.336   -23 07 40.13  .21082 1.2063 155.7 21.6 .366  68
2026 05 16 09  13 48 05.319   -23 07 51.37  .21057 1.2060 155.6 21.6 .378  69
2026 05 16 10  13 47 55.284   -23 08 02.59  .21031 1.2057 155.6 21.6 .390  69
2026 05 16 11  13 47 45.229   -23 08 13.80  .21006 1.2053 155.5 21.6 .402  70
2026 05 16 12  13 47 35.156   -23 08 24.98  .20980 1.2050 155.4 21.6 .414  70
2026 05 16 13  13 47 25.064   -23 08 36.14  .20955 1.2047 155.3 21.6 .427  70
2026 05 16 14  13 47 14.953   -23 08 47.29  .20929 1.2044 155.3 21.6 .440  71
2026 05 16 15  13 47 04.823   -23 08 58.41  .20904 1.2041 155.2 21.6 .453  71
2026 05 16 16  13 46 54.675   -23 09 09.52  .20879 1.2037 155.1 21.6 .467  71